Tampa Macdill AFB, FL

3:18 AM EDT on October 15, 2019 (GMT -0400)
MacDill Air Force Base

Weather History for KMCF - August, 2019

Change the Weather History Date:

Friday, August 30, 2019

  Actual Average Record
Temperature  
Mean Temperature 84 °F -  
Max Temperature 92 °F 88 °F 95 °F (2012)
Min Temperature 77 °F 73 °F 71 °F (2018)
Cooling Degree Days 19    
Growing Degree Days 34 (Base 50)    
Moisture  
Dew Point 75 °F    
Average Humidity 80    
Maximum Humidity 91    
Minimum Humidity 59    
Precipitation  
Precipitation 0.04 in - - ()
Sea Level Pressure  
Sea Level Pressure 29.94 in    
Wind  
Wind Speed 9 mph (East)    
Max Wind Speed 14 mph    
Max Gust Speed -    
Visibility 10 miles    
Events Rain , Thunderstorm    
Averages and records for this station are not official NWS values.
T = Trace of Precipitation, MM = Missing Value Source: NWS Daily Summary

Daily Weather History Graph

Daily Weather History Graph

Search for Another Location

Airport or City:

Astronomy

Aug. 30, 2019 Rise Set
Actual Time 7:07 AM EDT 7:53 PM EDT
Civil Twilight 6:43 AM EDT 8:17 PM EDT
Nautical Twilight 6:15 AM EDT 8:45 PM EDT
Astronomical Twilight 5:46 AM EDT 9:13 PM EDT
Moon 7:11 AM EDT (8/30) 8:28 PM EDT (8/30)
Length of Visible Light 13h 33m
Length of Day
12h 45m
New Moon, 0% of the Moon is Illuminated
Aug 30
New Moon
Sep 5
First Quarter
Sep 14
Full
Sep 21
Last Quarter
Sep 28
New

Hourly Weather History & Observations

Time (EDT) Temp. Heat Index Dew Point Humidity Pressure Visibility Wind Dir Wind Speed Gust Speed Precip Events Conditions
12:56 AM 78.6 °F - 73.6 °F 84% 29.97 in 10.0 mi ENE 8.1 mph - N/A   Clear
1:56 AM 78.6 °F - 73.9 °F 85% 29.95 in 10.0 mi ENE 8.1 mph - N/A   Clear
2:56 AM 78.8 °F - 74.5 °F 87% 29.93 in 10.0 mi NE 6.9 mph - N/A   Clear
3:56 AM 78.3 °F - 74.7 °F 89% 29.92 in 10.0 mi ENE 6.9 mph - N/A   Clear
4:56 AM 78.6 °F - 74.7 °F 88% 29.91 in 10.0 mi ENE 11.5 mph - N/A   Clear
5:56 AM 77.9 °F - 74.7 °F 90% 29.92 in 10.0 mi ENE 6.9 mph - N/A   Clear
6:56 AM 77.5 °F - 74.7 °F 91% 29.94 in 10.0 mi ENE 8.1 mph - N/A   Clear
7:56 AM 78.3 °F - 74.3 °F 88% 29.96 in 10.0 mi ENE 11.5 mph - N/A   Clear
8:56 AM 80.1 °F 84.8 °F 74.7 °F 83% 29.96 in 10.0 mi ENE 12.7 mph - N/A   Overcast
9:56 AM 83.7 °F 92.7 °F 76.5 °F 79% 29.97 in 10.0 mi ENE 10.4 mph - N/A   Scattered Clouds
10:56 AM 86.5 °F 96.9 °F 76.3 °F 71% 29.98 in 10.0 mi ENE 9.2 mph - N/A   Clear
11:36 AM 86.0 °F 95.1 °F 75.2 °F 70% 29.97 in 10.0 mi ENE 8.1 mph - N/A   Mostly Cloudy
11:56 AM 87.8 °F 98.6 °F 75.9 °F 68% 29.96 in 10.0 mi East 9.2 mph - N/A   Scattered Clouds
12:14 PM 87.8 °F 97.6 °F 75.2 °F 66% 29.96 in 10.0 mi East 8.1 mph - N/A   Light Drizzle
12:15 PM 87.8 °F 97.6 °F 75.2 °F 66% 29.96 in 10.0 mi East 8.1 mph - N/A   Partly Cloudy
12:56 PM 88.7 °F 98.2 °F 74.5 °F 63% 29.96 in 10.0 mi East 8.1 mph - 0.00 in   Clear
1:56 PM 90.1 °F 100.6 °F 74.8 °F 61% 29.93 in 10.0 mi NE 6.9 mph - N/A   Clear
2:56 PM 91.8 °F 103.4 °F 75.4 °F 59% 29.90 in 10.0 mi East 8.1 mph - N/A   Partly Cloudy
3:49 PM 87.8 °F 97.6 °F 75.2 °F 66% 29.88 in 10.0 mi East 13.8 mph - N/A   Mostly Cloudy
3:56 PM 86.2 °F 95.5 °F 75.6 °F 70% 29.88 in 10.0 mi ENE 10.4 mph - N/A   Mostly Cloudy
7:05 PM 78.8 °F - 71.6 °F 78% 29.93 in 10.0 mi SSE 10.4 mph - N/A Thunderstorm Thunderstorm
7:12 PM 78.8 °F - 71.6 °F 78% 29.93 in 10.0 mi SE 6.9 mph - N/A Rain , Thunderstorm Light Thunderstorms and Rain
7:25 PM 78.8 °F - 73.4 °F 83% 29.94 in 10.0 mi ESE 5.8 mph - N/A Rain , Thunderstorm Light Rain
7:56 PM 79.3 °F - 73.6 °F 82% 29.93 in 10.0 mi East 11.5 mph - 0.00 in Rain Light Rain
8:36 PM 78.8 °F - 75.2 °F 89% 29.94 in 10.0 mi East 10.4 mph - N/A Rain Light Rain
8:51 PM 77.0 °F - 73.4 °F 89% 29.95 in 10.0 mi ENE 8.1 mph - N/A Rain Light Rain
8:56 PM 77.7 °F - 74.1 °F 89% 29.95 in 10.0 mi East 9.2 mph - 0.02 in Rain Light Rain
9:25 PM 78.8 °F - 75.2 °F 89% 29.96 in 10.0 mi East 12.7 mph - N/A Rain Light Rain
9:56 PM 78.4 °F - 75.6 °F 91% 29.96 in 10.0 mi ENE 13.8 mph - 0.01 in Rain Light Rain
10:56 PM 78.1 °F - 75.2 °F 91% 29.98 in 10.0 mi ENE 8.1 mph - 0.01 in Rain Light Rain
11:19 PM 78.8 °F - 75.2 °F 89% 29.98 in 10.0 mi East 10.4 mph - N/A   Partly Cloudy
11:56 PM 78.8 °F - 75.9 °F 91% 29.98 in 10.0 mi East 8.1 mph - 0.00 in   Clear